Weather reports worldwide

Advertisment
Eindhoven, Netherlands (6370): temperature & dewpoint: 14.10.2019 04:00:00 - 20.10.2019 04:00:00 (CEST)Eindhoven, Netherlands (6370): temperature 5cm: 14.10.2019 04:00:00 - 20.10.2019 04:00:00 (CEST)Eindhoven, Netherlands (6370): wind speed & gusts: 14.10.2019 04:00:00 - 20.10.2019 04:00:00 (CEST)Eindhoven, Netherlands (6370): wind direction: 14.10.2019 04:00:00 - 20.10.2019 04:00:00 (CEST)Eindhoven, Netherlands (6370): reduced air pressure: 14.10.2019 04:00:00 - 20.10.2019 04:00:00 (CEST)Eindhoven, Netherlands (6370): visibility: 14.10.2019 04:00:00 - 20.10.2019 04:00:00 (CEST)Eindhoven, Netherlands (6370): precipitation: 14.10.2019 04:00:00 - 20.10.2019 04:00:00 (CEST)
Date & Time tt [°C] td [°C] tt 5cm [°C] ff [km/h] ff [kn] fx [km/h] fx [kn] dd ppp [hPa] vv [km] rr [mm]
20.10.2019 04:00:00 9,8 9,4 8,7 4 2 7 4 S 1006,8 7 0,0
20.10.2019 03:00:00 10,1 9,6 9,5 8 4 11 6 SSE 1007,0 9 0,0
20.10.2019 02:00:00 10,0 9,5 9,2 8 4 14 8 S 1007,1 10 0,0
20.10.2019 01:00:00 10,2 9,6 9,6 9 5 14 8 S 1007,1 10 0,0
20.10.2019 00:00:00 10,0 9,4 9,2 9 5 14 8 S 1006,8 10 0,0
19.10.2019 23:00:00 10,0 9,3 9,1 9 5 14 8 S 1006,4 10 0,0
19.10.2019 22:00:00 10,3 9,4 9,3 11 6 14 8 S 1006,2 10 0,0
19.10.2019 21:00:00 10,5 9,3 9,2 9 5 14 8 S 1005,7 10 0,0
19.10.2019 20:00:00 11,4 9,7 10,5 11 6 14 8 S 1005,1 10 0,0
19.10.2019 19:00:00 12,0 9,4 11,1 11 6 18 10 S 1004,7 10 0,0
19.10.2019 18:00:00 13,0 9,9 12,4 11 6 18 10 S 1004,6 10 0,0
19.10.2019 17:00:00 13,5 10,2 13,2 11 6 22 12 SSW 1004,2 10 0,0
19.10.2019 16:00:00 13,9 10,3 13,8 11 6 25 14 S 1004,1 10 0,0
19.10.2019 15:00:00 13,4 10,4 13,4 13 7 25 14 S 1004,2 10 0,0
19.10.2019 14:00:00 13,5 10,6 13,9 18 10 29 16 SSW 1004,0 10 0,0
19.10.2019 13:00:00 12,4 10,2 13,3 13 7 22 12 SSW 1004,2 10 0,0
19.10.2019 12:00:00 11,8 10,5 12,0 15 8 32 18 SSW 1004,1 10 0,4
19.10.2019 11:00:00 12,1 11,2 12,1 16 9 25 14 SSW 1004,1 5 0,8
19.10.2019 10:00:00 12,1 10,7 11,9 15 8 22 12 S 1003,7 10 0,0
19.10.2019 09:00:00 11,6 10,4 11,2 13 7 22 12 S 1003,6 10 0,0
19.10.2019 08:00:00 11,3 10,2 10,9 13 7 29 16 S 1003,6 10 0,3
19.10.2019 07:00:00 11,2 10,2 10,9 15 8 25 14 S 1004,3 10 0,8
19.10.2019 06:00:00 11,7 9,6 11,2 15 8 25 14 S 1004,6 10 0,2
19.10.2019 05:00:00 11,9 8,9 11,3 18 10 36 19 S 1004,8 10 0,0
19.10.2019 04:00:00 11,9 8,4 11,4 14 8 29 16 S 1005,0 35 0,0
19.10.2019 03:00:00 11,8 7,9 11,1 18 10 29 16 S 1005,0 39 0,0
19.10.2019 02:00:00 11,2 7,4 10,2 18 10 25 14 S 1005,7 42 0,0
19.10.2019 01:00:00 11,3 7,3 10,3 18 10 32 18 S 1006,0 42 0,0
19.10.2019 00:00:00 11,3 7,2 10,2 18 10 32 18 S 1006,3 10 0,0
18.10.2019 23:00:00 11,4 7,1 10,3 18 10 29 16 S 1006,6 10 0,0
18.10.2019 22:00:00 11,4 7,0 10,1 16 9 29 16 S 1006,9 10 0,0
18.10.2019 21:00:00 11,2 7,3 10,1 16 9 29 16 SSW 1007,0 10 0,0
18.10.2019 20:00:00 11,0 7,8 9,6 16 9 25 14 S 1006,9 10 0,0
18.10.2019 19:00:00 9,8 8,4 8,6 9 5 18 10 S 1007,1 10 0,0
18.10.2019 18:00:00 10,7 8,7 10,4 16 9 43 23 SSW 1006,7 10 0,9
18.10.2019 17:00:00 11,6 7,9 11,2 24 13 43 23 SW 1007,0 10 1,0
18.10.2019 16:00:00 14,2 7,2 14,1 37 20 54 29 SW 1005,6 10 0,0
18.10.2019 15:00:00 14,1 6,9 14,0 39 21 68 37 SW 1005,0 10 0,0
18.10.2019 14:00:00 14,9 8,5 15,2 39 21 61 33 SW 1004,1 10 0,0
18.10.2019 13:00:00 13,1 7,2 13,0 34 18 61 33 SSW 1003,6 10 0,0
18.10.2019 12:00:00 12,8 9,5 12,5 26 14 43 23 SSW 1003,0 10 0,2
18.10.2019 11:00:00 11,4 9,3 10,9 35 19 54 29 SW 1003,2 5 4,6
18.10.2019 10:00:00 14,1 11,4 13,8 18 10 29 16 S 1003,1 10 0,0
18.10.2019 09:00:00 13,1 11,5 12,2 18 10 29 16 SSE 1003,9 10 0,0
18.10.2019 08:00:00 12,3 11,4 11,6 15 8 25 14 SSE 1004,2 10 0,0
18.10.2019 07:00:00 12,6 11,7 12,0 15 8 22 12 S 1005,1 10 0,0
18.10.2019 06:00:00 12,7 11,7 11,9 13 7 22 12 S 1005,5 10 0,0
18.10.2019 05:00:00 12,8 11,6 12,4 18 10 29 16 S 1006,1 10 0,9
18.10.2019 04:00:00 12,7 11,3 12,1 15 8 25 14 S 1006,7 10 0,0
18.10.2019 03:00:00 12,5 11,3 11,9 15 8 29 16 S 1007,4 10 0,0
18.10.2019 02:00:00 12,6 11,5 12,1 15 8 22 12 S 1007,7 10 0,0
18.10.2019 01:00:00 11,7 11,3 11,1 11 6 18 10 S 1008,1 10 0,0
18.10.2019 00:00:00 11,1 10,7 9,8 9 5 18 10 SSE 1008,7 8 0,0
17.10.2019 23:00:00 11,7 11,2 10,8 13 7 22 12 S 1009,1 10 0,0
17.10.2019 22:00:00 11,4 11,2 10,5 9 5 14 8 S 1009,3 8 0,0
17.10.2019 21:00:00 11,5 11,2 10,4 9 5 14 8 SSE 1009,2 10 0,0
17.10.2019 20:00:00 12,3 11,8 11,3 9 5 14 8 SSE 1009,1 10 0,0
17.10.2019 19:00:00 13,2 12,4 12,8 8 4 18 10 S 1008,9 10 0,0
17.10.2019 18:00:00 14,0 12,2 13,9 11 6 18 10 SSE 1009,0 10 0,0
17.10.2019 17:00:00 14,7 11,7 14,9 11 6 18 10 SSE 1009,2 10 0,0
17.10.2019 16:00:00 15,1 10,3 15,1 11 6 18 10 S 1009,7 10 0,0
17.10.2019 15:00:00 15,8 9,8 16,3 15 8 22 12 SSW 1010,1 10 0,0
17.10.2019 14:00:00 16,1 10,4 17,5 13 7 22 12 SSW 1010,3 10 0,0
17.10.2019 13:00:00 14,4 10,4 14,6 18 10 25 14 SSW 1010,8 10 0,0
17.10.2019 12:00:00 14,0 11,4 14,2 13 7 22 12 SW 1011,0 10 0,0
17.10.2019 11:00:00 13,5 11,9 14,0 11 6 22 12 S 1010,6 9 0,0
17.10.2019 10:00:00 13,1 12,0 13,1 13 7 22 12 SW 1010,5 5 0,0
17.10.2019 09:00:00 12,8 12,1 12,8 5 3 14 8 W 1009,7 8 0,0
17.10.2019 08:00:00 13,0 12,3 12,9 11 6 18 10 W 1008,9 10 0,0
17.10.2019 07:00:00 13,4 12,9 13,3 11 6 25 14 W 1008,1 9 0,9
17.10.2019 06:00:00 13,8 13,2 13,7 16 9 29 16 SSW 1007,6 4,0 0,1
17.10.2019 05:00:00 13,8 13,1 13,6 16 9 29 16 SSW 1007,3 4,0 0,1
17.10.2019 04:00:00 13,8 12,9 13,6 18 10 29 16 SSW 1007,2 4,6 0,0
17.10.2019 03:00:00 13,7 12,8 13,5 15 8 29 16 S 1007,0 10 0,1
17.10.2019 02:00:00 13,5 12,8 13,3 18 10 32 18 S 1007,0 6 0,2
17.10.2019 01:00:00 13,4 12,7 13,2 21 11 32 18 S 1007,0 6 0,9
17.10.2019 00:00:00 13,5 12,7 13,4 18 10 36 19 S 1007,2 10 0,3
16.10.2019 23:00:00 13,9 12,9 13,6 21 11 32 18 S 1007,3 10 1,1
16.10.2019 22:00:00 14,0 13,1 13,8 21 11 32 18 S 1007,2 10 1,9
16.10.2019 21:00:00 13,9 13,2 13,8 18 10 29 16 S 1007,1 10 1,7
16.10.2019 20:00:00 14,0 13,2 13,8 18 10 29 16 S 1007,3 10 0,8
16.10.2019 19:00:00 13,9 13,2 13,8 18 10 29 16 S 1007,1 9 0,9
16.10.2019 18:00:00 14,0 13,2 13,9 18 10 32 18 S 1007,0 10 0,3
16.10.2019 17:00:00 14,1 13,0 14,0 21 11 36 19 S 1007,1 7 0,0
16.10.2019 16:00:00 14,6 12,9 14,5 16 9 25 14 S 1007,1 10 0,0
16.10.2019 15:00:00 13,8 13,0 13,9 16 9 32 18 S 1007,3 6 0,1
16.10.2019 14:00:00 13,5 12,5 14,0 21 11 40 21 S 1007,5 6 0,1
16.10.2019 13:00:00 13,8 12,0 14,0 26 14 40 21 S 1008,1 10 0,0
16.10.2019 12:00:00 13,7 10,5 13,7 18 10 32 18 S 1008,5 10 0,0
16.10.2019 11:00:00 13,6 10,4 14,1 21 11 36 19 S 1008,9 10 0,0
16.10.2019 10:00:00 12,3 9,8 12,4 16 9 29 16 S 1009,2 10 0,0
16.10.2019 09:00:00 10,9 9,4 10,4 15 8 22 12 S 1009,0 10 0,0
16.10.2019 08:00:00 11,0 9,4 10,1 15 8 25 14 S 1009,0 10 0,0
16.10.2019 07:00:00 11,7 10,2 11,2 13 7 22 12 SSW 1009,1 10 0,0
16.10.2019 06:00:00 11,7 10,1 11,3 11 6 22 12 S 1009,0 10 0,0
16.10.2019 05:00:00 11,4 9,7 10,4 15 8 22 12 SSW 1009,0 10 0,0
16.10.2019 04:00:00 11,5 9,8 10,8 15 8 25 14 SSW 1009,1 10 0,0
16.10.2019 03:00:00 12,5 10,3 11,9 15 8 22 12 SSW 1009,1 10 0,0
16.10.2019 02:00:00 12,6 10,8 12,2 13 7 22 12 SSW 1008,9 10 0,0
16.10.2019 01:00:00 12,6 10,9 12,3 13 7 18 10 SSW 1008,6 10 0,0
16.10.2019 00:00:00 12,8 10,8 12,2 11 6 18 10 SSW 1008,8 10 0,0
15.10.2019 23:00:00 13,2 11,7 12,9 15 8 22 12 SW 1008,5 10 0,0
15.10.2019 22:00:00 13,5 12,7 13,2 13 7 18 10 SSW 1008,2 10 0,0
15.10.2019 21:00:00 13,6 12,9 13,2 9 5 18 10 S 1007,8 10 0,0
15.10.2019 20:00:00 13,9 13,1 13,6 9 5 14 8 S 1007,4 10 0,0
15.10.2019 19:00:00 14,0 13,3 13,7 8 4 11 6 S 1006,9 10 0,0
15.10.2019 18:00:00 14,4 13,4 14,2 9 5 14 8 SSW 1006,3 10 0,4
15.10.2019 17:00:00 14,9 13,4 14,8 15 8 18 10 SSW 1006,4 10 0,2
15.10.2019 16:00:00 15,7 13,4 15,8 11 6 14 8 S 1006,4 10 0,1
15.10.2019 15:00:00 16,1 13,3 16,4 11 6 18 10 S 1006,3 10 0,0
15.10.2019 14:00:00 16,3 13,8 16,4 9 5 18 10 S 1006,2 10 0,0
15.10.2019 13:00:00 15,7 14,4 - 11 6 22 12 S 1006,8 10 0,1
15.10.2019 12:00:00 15,5 14,3 15,6 9 5 18 10 S 1006,4 10 0,1
15.10.2019 11:00:00 15,1 14,1 15,4 11 6 18 10 S 1005,4 10 0,0
15.10.2019 10:00:00 14,5 13,6 14,3 13 7 18 10 SSE 1006,5 10 0,3
15.10.2019 09:00:00 14,6 13,2 14,3 8 4 14 8 S 1005,7 7 0,6
15.10.2019 08:00:00 14,8 12,5 14,3 9 5 14 8 SSW 1005,4 10 0,0
15.10.2019 07:00:00 14,3 12,5 13,2 9 5 14 8 S 1005,3 10 0,0
15.10.2019 06:00:00 14,9 13,1 12,8 8 4 11 6 S 1005,3 10 0,0
15.10.2019 05:00:00 16,1 13,2 15,0 11 6 25 14 S 1005,1 10 0,0
15.10.2019 04:00:00 16,3 13,2 15,4 15 8 18 10 S 1005,1 10 0,0
15.10.2019 03:00:00 16,4 13,5 15,1 13 7 18 10 S 1005,4 10 0,0
15.10.2019 02:00:00 16,7 13,6 15,5 15 8 18 10 SSE 1005,3 10 0,0
15.10.2019 01:00:00 16,5 13,6 15,3 11 6 14 8 SSE 1005,2 10 0,0
15.10.2019 00:00:00 18,1 13,9 16,3 9 5 18 10 SE 1005,2 10 0,0
14.10.2019 23:00:00 18,5 14,4 17,5 9 5 18 10 SE 1005,6 10 0,0
14.10.2019 22:00:00 18,8 14,2 17,3 9 5 14 8 SE 1005,9 10 0,0
14.10.2019 21:00:00 19,8 14,3 18,4 9 5 14 8 SE 1005,9 10 0,0
14.10.2019 20:00:00 19,6 15,1 18,3 9 5 14 8 SE 1006,3 10 0,0
14.10.2019 19:00:00 19,9 15,4 18,8 9 5 22 12 SE 1006,5 10 0,0
14.10.2019 18:00:00 20,8 15,4 20,0 13 7 22 12 ESE 1006,2 10 0,0
14.10.2019 17:00:00 21,1 15,0 20,7 15 8 25 14 ESE 1007,1 10 0,0
14.10.2019 16:00:00 21,7 15,1 22,7 15 8 25 14 ESE 1007,8 10 0,0
14.10.2019 15:00:00 21,5 14,8 23,0 15 8 25 14 - 1008,6 10 0,0
14.10.2019 14:00:00 20,6 14,4 22,3 13 7 25 14 ESE 1009,4 10 0,0
14.10.2019 13:00:00 18,7 13,8 20,1 13 7 32 18 ESE 1010,6 10 0,0
14.10.2019 12:00:00 16,6 12,6 16,7 13 7 25 14 E 1011,4 10 0,0
14.10.2019 11:00:00 15,9 12,5 16,3 15 8 22 12 E 1012,4 10 0,0
14.10.2019 10:00:00 14,2 12,9 13,8 8 4 11 6 E 1012,8 10 0,0
14.10.2019 09:00:00 12,7 12,2 12,3 5 3 11 6 E 1012,8 10 0,0
14.10.2019 08:00:00 9,3 9,0 7,1 2 1 4 2 - 1013,2 4,3 0,0
14.10.2019 07:00:00 11,0 10,7 7,4 2 1 4 2 SE 1013,2 0,4 0,0
14.10.2019 06:00:00 11,1 10,6 9,1 4 2 11 6 - 1013,2 10 0,0
14.10.2019 05:00:00 13,5 12,5 12,9 9 5 14 8 SSE 1012,9 10 0,0
14.10.2019 04:00:00 13,7 12,5 12,9 9 5 14 8 SSW 1013,4 10 0,0

tt = temperature
td = dewpoint
tt 5cm = temperature 5cm
ff = wind speed
fx = gusts
dd = wind direction
ppp = reduced air pressure
vv = visibility
rr = precipitation

Next stations